This is the latest recevied weather packets stored in our database for station/object DL3TR-13. If no packets are shown the sender has not sent any weather packets the latest 10 day(s).
| Time | Temp. | Humidity | Pressure | Rain* | Wind** | Luminosity | Snow |
|---|---|---|---|---|---|---|---|
| 1777997590 | 15.56° C | 79% | 1005.5 hPa | 0 mm | - | 118 W/m² | - |
| 1777996990 | 15.56° C | 76% | 1005.5 hPa | 0 mm | - | 83 W/m² | - |
| 1777996390 | 15.56° C | 76% | 1005.5 hPa | 0 mm | - | 118 W/m² | - |
| 1777995790 | 15.56° C | 76% | 1005.6 hPa | 0 mm | - | 209 W/m² | - |
| 1777995190 | 15.56° C | 76% | 1005.8 hPa | 0 mm | - | 172 W/m² | - |
| 1777994590 | 15.56° C | 74% | 1005.7 hPa | 0 mm | - | 151 W/m² | - |
| 1777993990 | 16.11° C | 70% | 1005.8 hPa | 0 mm | - | 90 W/m² | - |
| 1777993390 | 17.22° C | 64% | 1005.9 hPa | 0 mm | - | 135 W/m² | - |
| 1777992790 | 17.22° C | 63% | 1005.6 hPa | 0 mm | - | 225 W/m² | - |
| 1777992190 | 17.22° C | 63% | 1005.6 hPa | 0 mm | - | 225 W/m² | - |
| 1777991590 | 17.78° C | 62% | 1005.6 hPa | 0 mm | - | 287 W/m² | - |
| 1777990990 | 17.78° C | 63% | 1005.6 hPa | 0 mm | - | 294 W/m² | - |
| 1777990390 | 17.78° C | 57% | 1005.7 hPa | 0 mm | - | 417 W/m² | - |
| 1777989790 | 17.22° C | 56% | 1005.8 hPa | 0 mm | - | 308 W/m² | - |
| 1777989189 | 17.78° C | 56% | 1005.8 hPa | 0 mm | - | 350 W/m² | - |
| 1777988590 | 17.78° C | 55% | 1005.8 hPa | 0 mm | - | 550 W/m² | - |
| 1777987990 | 16.67° C | 60% | 1005.9 hPa | 0 mm | - | 566 W/m² | - |
| 1777987390 | 16.67° C | 64% | 1006 hPa | 0 mm | - | 352 W/m² | - |
| 1777986789 | 16.67° C | 69% | 1006 hPa | 0 mm | - | 450 W/m² | - |
| 1777986190 | 16.67° C | 71% | 1006.1 hPa | 0 mm | - | 610 W/m² | - |
| 1777985590 | 16.67° C | 71% | 1006.2 hPa | 0 mm | - | 383 W/m² | - |
| 1777984990 | 16.11° C | 72% | 1006.3 hPa | 0 mm | - | 425 W/m² | - |
| 1777984390 | 15.56° C | 76% | 1006.4 hPa | 0 mm | - | 371 W/m² | - |
| 1777983790 | 15° C | 73% | 1006.3 hPa | 0 mm | - | 295 W/m² | - |
| 1777983190 | 15.56° C | 74% | 1006.2 hPa | 0 mm | - | 269 W/m² | - |
* Rain latest hour (hover to see other rain measurements)
** Current wind speed in m/s (hover to see current wind gust speed)